[[{"header":{"parameterUnit":"m.s-1","parameterCategory":1,"la1":30.2991,"la2":30.254,"lo1":-89.0895,"lo2":-89.0444,"dy":0.0017,"dx":0.0017,"nx":28,"ny":28,"refTime":"2023-09-28T09:00:00:Z","depth":0,"parameterNumber":2,"parameterNumberName":"U-component_of_WINDS"},"data":[0,0,0,0,0,0,0,0,0,0,0,0,0,0,0,0,0,0,0,0,0,0,0,0,0,0,0,0,0,0,0,0,0,0,0,0,0,0,0,0,0,0,0,0,0,0,0,0,0,0,0,0,0,0,0,0,0,0,-5.2073,-5.2074,0,-5.2178,-5.2179,-5.218,-5.2034,-5.2029,-5.2023,-5.2019,-5.2128,-5.2136,-5.2143,0,0,0,0,0,0,0,0,0,0,0,0,0,-5.1748,-5.1755,-5.2073,-5.2074,-5.2075,-5.2177,-5.2179,-5.218,-5.2035,-5.2028,-5.2022,-5.2016,-5.2126,-5.2135,-5.2144,0,0,0,0,0,0,0,0,0,0,0,0,0,-5.1875,-5.1757,-5.2073,-5.2015,-5.2011,-5.2177,-5.2179,-5.2181,-5.2036,-5.2028,-5.202,-5.2013,-5.2123,-5.2134,-5.2145,-5.2374,0,0,-5.2181,-5.2186,0,0,0,0,0,0,0,0,-5.1868,-5.1887,-5.2022,-5.2019,-5.2015,-5.2085,-5.2104,-5.2246,-5.2038,-5.2027,-5.2018,-5.2009,-5.212,-5.2131,-5.2168,-5.2379,-5.2383,-5.2182,-5.2189,-5.2194,-5.2197,0,0,0,0,0,0,0,-5.1859,-5.1882,-5.2114,-5.2024,-5.202,-5.1984,-5.1994,-5.213,-5.2116,-5.2027,-5.2017,-5.2031,-5.2117,-5.2157,-5.217,-5.2385,-5.2182,-5.2192,-5.2199,-5.2204,-5.2788,-5.2796,0,0,0,0,0,0,-5.1857,-5.1875,-5.2111,-5.2117,-5.1921,-5.1997,-5.2007,-5.207,-5.2114,-5.2113,-5.2038,-5.2024,-5.2141,-5.2156,-5.2173,-5.2443,-5.2194,-5.2205,-5.2212,-5.2779,-5.2789,-5.2799,0,0,0,0,0,0,-5.1851,-5.1879,-5.2107,-5.1994,-5.202,-5.2011,-5.2083,-5.2076,-5.2117,-5.2122,-5.2119,-5.2082,-5.2136,-5.2157,-5.2325,-5.2445,-5.221,-5.2221,-5.2769,-5.2782,-5.2794,-5.2985,0,0,0,0,0,0,-5.1842,-5.1878,-5.1964,-5.1997,-5.2026,-5.2257,-5.209,-5.2084,-5.2137,-5.212,-5.2163,-5.2162,-5.2131,-5.2308,-5.2336,-5.2456,-5.223,-5.2758,-5.2775,-5.279,-5.2968,-5.3002,-5.3032,0,0,0,0,0,-5.1831,-5.2014,-5.1969,-5.1999,-5.2134,-5.2264,-5.2281,-5.2241,-5.2148,-5.2234,-5.2237,-5.2161,-5.2427,-5.2326,-5.2357,-5.2482,-5.2751,-5.277,-5.2789,-5.2953,-5.2995,-5.3031,0,0,0,0,0,0,-5.1997,-5.2017,-5.1968,-5.2167,-5.2215,-5.2239,-5.2347,-5.2287,-5.2363,-5.2344,-5.2291,-5.2302,-5.2482,-5.2499,-5.2386,-5.2705,-5.2573,-5.26,-5.2688,-5.2728,-5.276,-5.2752,-5.224,0,0,0,0,0,-5.2057,-5.216,-5.2172,-5.2347,-5.2373,-5.2357,-5.2412,-5.2377,-5.2424,-5.2444,-5.2459,-5.2509,-5.2603,-5.2666,-5.2754,-5.2969,-5.2976,-5.3071,-5.3103,-5.3129,-5.3153,-5.3268,-5.331,-5.2862,-5.2861,-5.2861,0,0,-5.2182,-5.2206,-5.2274,-5.2381,-5.2414,-5.2522,-5.2375,-5.2495,-5.2575,-5.2462,-5.2621,-5.2635,-5.2686,-5.2879,-5.2965,-5.2899,-5.3278,-5.3154,-5.3175,-5.3184,-5.3292,-5.3334,-5.3372,-5.2875,-5.2872,-5.287,0,0,-5.2464,-5.2493,-5.2641,-5.2677,-5.2728,-5.2715,-5.2751,-5.2785,-5.2789,-5.2948,-5.2865,-5.2959,-5.3124,-5.3164,-5.3206,-5.3504,-5.3436,-5.3534,-5.3702,-5.3815,-5.385,-5.3881,-5.3987,-5.4026,-5.3557,-5.3558,-5.3558,0,-5.2613,-5.2772,-5.2725,-5.2852,-5.2901,-5.2803,-5.2953,-5.299,-5.3068,-5.3105,-5.303,-5.3233,-5.3262,-5.3462,-5.3535,-5.3572,-5.3612,-5.3529,-5.3849,-5.388,-5.3908,-5.4008,-5.4048,-5.3569,-5.3568,-5.3567,-5.3565,0,-5.2952,-5.3064,-5.3178,-5.3254,-5.3317,-5.3455,-5.3429,-5.3498,-5.3458,-5.3454,-5.3617,-5.3647,-5.3739,-5.3784,-5.3746,-5.398,-5.3937,-5.3857,-5.3723,-5.3963,-5.4056,-5.4095,-5.3586,-5.3581,-5.3578,-5.3575,0,0,-5.3342,-5.339,-5.3433,-5.3466,-5.3516,-5.3601,-5.3735,-5.3824,-5.3884,-5.3941,-5.4052,-5.4193,-5.4119,-5.4167,-5.4133,-5.4232,-5.4466,-5.4139,-5.414,-5.4199,-5.4725,-5.4785,-5.483,-5.4422,-5.4429,-5.4435,-5.472,0,-5.3623,-5.3853,-5.3815,-5.4038,-5.4141,-5.4049,-5.4166,-5.4209,-5.4209,-5.4297,-5.4296,-5.4397,-5.4292,-5.432,-5.4414,-5.4418,-5.4571,-5.4397,-5.4525,-5.453,-5.4514,-5.4879,-5.4943,-5.5211,-5.4757,-5.4763,-5.4767,0,-5.3982,-5.4051,-5.4285,-5.4318,-5.4359,-5.4465,-5.4543,-5.4628,-5.4675,-5.4668,-5.4722,-5.467,-5.4804,-5.4668,-5.4852,-5.4734,-5.4785,-5.4795,-5.4804,-5.4814,-5.4663,-5.4899,-5.5295,-5.5336,-5.4825,-5.482,-5.4816,0,-5.4242,-5.4394,-5.4553,-5.4585,-5.4627,-5.4703,-5.4725,-5.4764,-5.482,-5.4889,-5.4925,-5.5009,-5.5055,-5.5122,-5.5094,-5.4998,-5.5284,-5.5146,-5.5282,-5.5283,-5.5345,-5.5342,-5.5756,-5.5379,-5.5379,-5.5378,-5.5377,0,-5.456,-5.4706,-5.467,-5.4769,-5.493,-5.4885,-5.5046,-5.5056,-5.5093,-5.5191,-5.5118,-5.5212,-5.517,-5.5262,-5.5241,-5.5397,-5.5418,-5.5416,-5.5409,-5.5423,-5.5423,-5.5454,-5.5435,-5.5389,-5.5386,-5.5384,-5.5382,0,-5.4877,-5.4859,-5.5027,-5.5053,-5.5063,-5.5181,-5.5204,-5.5296,-5.529,-5.5416,-5.5443,-5.5434,-5.5538,-5.5517,-5.5633,-5.5619,-5.5813,-5.5783,-5.5797,-5.579,-5.5927,-5.5914,-5.6375,-5.6433,-5.602,-5.6024,-5.6027,0,-5.5081,-5.5191,-5.523,-5.529,-5.5317,-5.5415,-5.5472,-5.5432,-5.5494,-5.5556,-5.5641,-5.5739,-5.5814,-5.5985,-5.599,-5.6078,-5.6049,-5.6204,-5.6061,-5.6072,-5.605,-5.6044,-5.6055,-5.6232,-5.6237,-5.6241,-5.6244,0,-5.5444,-5.543,-5.5513,-5.5595,-5.5664,-5.5726,-5.5782,-5.5836,-5.5801,-5.5874,-5.5979,-5.6038,-5.6155,-5.6253,-5.6335,-5.6357,-5.6296,-5.6289,-5.6325,-5.634,-5.6343,-5.6343,-5.5874,-5.6279,-5.6275,-5.6273,-5.6271,-5.6269,-5.571,-5.5804,-5.5845,-5.5941,-5.5978,-5.6032,-5.6119,-5.6124,-5.6211,-5.6303,-5.6274,-5.6394,-5.6439,-5.6542,-5.6574,-5.6668,-5.661,-5.6662,-5.6675,-5.6689,-5.6705,-5.6329,-5.6683,-5.6682,-5.6681,-5.668,-5.6679,0,-5.6069,-5.6091,-5.618,-5.6259,-5.6335,-5.627,-5.6327,-5.6395,-5.6501,-5.6548,-5.6624,-5.6745,-5.684,-5.6852,-5.6942,-5.7014,-5.6989,-5.7039,-5.7033,-5.7039,-5.6752,-5.6712,-5.7059,-5.7059,-5.7058,-5.7058,-5.7058,-5.7058,-5.6264,-5.6419,-5.641,-5.6582,-5.6603,-5.672,-5.6758,-5.6807,-5.6844,-5.6983,-5.706,-5.7067,-5.7101,-5.7192,-5.7276,-5.7277,-5.7314,-5.7376,-5.7366,-5.7097,-5.706,-5.7023,-5.6985,-5.7384,-5.7384,-5.7645,-5.7648,-5.7649]},{"header":{"parameterUnit":"m.s-1","parameterCategory":1,"la1":30.2991,"la2":30.254,"lo1":-89.0895,"lo2":-89.0444,"dy":0.0017,"dx":0.0017,"nx":28,"ny":28,"refTime":"2023-09-28T09:00:00:Z","depth":0,"parameterNumber":3,"parameterNumberName":"V-component_of_WINDS"},"data":[0,0,0,0,0,0,0,0,0,0,0,0,0,0,0,0,0,0,0,0,0,0,0,0,0,0,0,0,0,0,0,0,0,0,0,0,0,0,0,0,0,0,0,0,0,0,0,0,0,0,0,0,0,0,0,0,0,0,-1.6833,-1.6833,0,-1.6806,-1.6806,-1.6806,-1.6782,-1.6782,-1.6782,-1.6781,-1.6754,-1.6753,-1.6753,0,0,0,0,0,0,0,0,0,0,0,0,0,-1.6862,-1.6861,-1.6833,-1.6833,-1.6832,-1.6806,-1.6806,-1.6806,-1.6782,-1.6782,-1.6782,-1.6781,-1.6754,-1.6753,-1.6753,0,0,0,0,0,0,0,0,0,0,0,0,0,-1.6844,-1.6861,-1.6833,-1.6818,-1.6816,-1.6806,-1.6806,-1.6805,-1.6782,-1.6782,-1.6782,-1.6781,-1.6754,-1.6753,-1.6752,-1.6756,0,0,-1.675,-1.675,0,0,0,0,0,0,0,0,-1.6845,-1.6843,-1.682,-1.6819,-1.6817,-1.6797,-1.6806,-1.6789,-1.6782,-1.6795,-1.6781,-1.6781,-1.6768,-1.6766,-1.6762,-1.6755,-1.6753,-1.675,-1.675,-1.6749,-1.6749,0,0,0,0,0,0,0,-1.6846,-1.6844,-1.6822,-1.682,-1.6818,-1.6811,-1.6808,-1.6802,-1.6784,-1.6794,-1.6792,-1.6789,-1.6767,-1.6763,-1.6761,-1.6753,-1.675,-1.675,-1.6749,-1.6749,-1.6744,-1.6745,0,0,0,0,0,0,-1.685,-1.6845,-1.6823,-1.6822,-1.683,-1.6811,-1.6808,-1.6804,-1.6784,-1.6781,-1.679,-1.6788,-1.6764,-1.6762,-1.676,-1.6762,-1.6749,-1.6749,-1.6748,-1.6744,-1.6744,-1.6745,0,0,0,0,0,0,-1.685,-1.6848,-1.6824,-1.6833,-1.6829,-1.6811,-1.6807,-1.6804,-1.6799,-1.6781,-1.6778,-1.6789,-1.6764,-1.6761,-1.6757,-1.676,-1.6748,-1.6748,-1.6744,-1.6744,-1.6745,-1.6765,0,0,0,0,0,0,-1.6851,-1.6848,-1.685,-1.6833,-1.6829,-1.6822,-1.6807,-1.6803,-1.6798,-1.6796,-1.6779,-1.6776,-1.6764,-1.6758,-1.6756,-1.6759,-1.6747,-1.6743,-1.6744,-1.6744,-1.6764,-1.6766,-1.6768,0,0,0,0,0,-1.6853,-1.6857,-1.685,-1.6848,-1.6831,-1.6822,-1.682,-1.6805,-1.6799,-1.68,-1.6787,-1.6777,-1.676,-1.6758,-1.6755,-1.6758,-1.6743,-1.6744,-1.6744,-1.6763,-1.6766,-1.6768,0,0,0,0,0,0,-1.6876,-1.6855,-1.6847,-1.6847,-1.6836,-1.6818,-1.6819,-1.6809,-1.68,-1.6799,-1.6781,-1.6777,-1.6774,-1.6766,-1.6763,-1.6759,-1.675,-1.675,-1.6765,-1.6768,-1.677,-1.6771,-1.6747,0,0,0,0,0,-1.6881,-1.6876,-1.6858,-1.6859,-1.6855,-1.6838,-1.6834,-1.6823,-1.6812,-1.6807,-1.6795,-1.6784,-1.6776,-1.6771,-1.6763,-1.6763,-1.6758,-1.6763,-1.6765,-1.6767,-1.6768,-1.6765,-1.6766,-1.6747,-1.6747,-1.6747,0,0,-1.6892,-1.688,-1.6878,-1.6864,-1.6855,-1.6849,-1.6834,-1.683,-1.6825,-1.6807,-1.6801,-1.6791,-1.6778,-1.6775,-1.6773,-1.6768,-1.6772,-1.6768,-1.677,-1.6769,-1.6766,-1.6767,-1.6769,-1.6748,-1.6748,-1.6748,0,0,-1.6908,-1.6899,-1.6898,-1.6889,-1.6875,-1.6863,-1.6863,-1.6846,-1.6839,-1.6833,-1.6818,-1.6812,-1.68,-1.679,-1.6784,-1.6794,-1.6783,-1.6792,-1.6803,-1.68,-1.6801,-1.6803,-1.6805,-1.6806,-1.6792,-1.6792,-1.6792,0,-1.6923,-1.6915,-1.6899,-1.6895,-1.6888,-1.6871,-1.6869,-1.6861,-1.6845,-1.684,-1.6835,-1.6817,-1.6807,-1.68,-1.6803,-1.6798,-1.6796,-1.6794,-1.6803,-1.6804,-1.6804,-1.6807,-1.6808,-1.6793,-1.6793,-1.6793,-1.6793,0,-1.6933,-1.6927,-1.6928,-1.6913,-1.6906,-1.6904,-1.6887,-1.6882,-1.6872,-1.686,-1.6853,-1.684,-1.6828,-1.6826,-1.6816,-1.6817,-1.6814,-1.6806,-1.6796,-1.6808,-1.6809,-1.681,-1.6795,-1.6795,-1.6794,-1.6794,0,0,-1.6964,-1.6939,-1.694,-1.6932,-1.6914,-1.6909,-1.6904,-1.6893,-1.6888,-1.6877,-1.6872,-1.6861,-1.6852,-1.6845,-1.6834,-1.6831,-1.6838,-1.6823,-1.6822,-1.6825,-1.6837,-1.6843,-1.6845,-1.6831,-1.6831,-1.6831,-1.6838,0,-1.6977,-1.6968,-1.6953,-1.6949,-1.6943,-1.6925,-1.6921,-1.6909,-1.6898,-1.689,-1.6878,-1.687,-1.686,-1.6855,-1.6852,-1.6838,-1.6841,-1.6838,-1.6825,-1.6825,-1.6829,-1.6846,-1.6852,-1.6859,-1.6839,-1.6839,-1.6839,0,-1.6991,-1.6981,-1.6976,-1.6957,-1.6954,-1.695,-1.6937,-1.693,-1.6916,-1.6908,-1.6899,-1.6886,-1.6879,-1.687,-1.6859,-1.6858,-1.6851,-1.6844,-1.6844,-1.6842,-1.6832,-1.6843,-1.6861,-1.6862,-1.684,-1.684,-1.684,0,-1.7013,-1.6998,-1.6992,-1.6986,-1.6964,-1.6962,-1.6953,-1.6938,-1.6931,-1.6919,-1.6914,-1.6902,-1.6895,-1.6885,-1.6869,-1.6865,-1.686,-1.685,-1.6852,-1.6852,-1.6852,-1.6852,-1.6868,-1.6849,-1.6849,-1.6849,-1.6849,0,-1.7028,-1.7026,-1.7001,-1.6998,-1.6994,-1.6976,-1.6973,-1.6962,-1.6948,-1.6942,-1.6925,-1.6919,-1.6899,-1.689,-1.6877,-1.6869,-1.6866,-1.6859,-1.6855,-1.686,-1.6861,-1.6856,-1.6854,-1.6849,-1.6849,-1.6849,-1.6849,0,-1.7052,-1.7036,-1.7029,-1.7008,-1.7003,-1.7001,-1.6983,-1.6978,-1.6965,-1.6957,-1.6954,-1.6934,-1.6923,-1.6906,-1.6889,-1.688,-1.6874,-1.6869,-1.6879,-1.6877,-1.688,-1.6879,-1.6893,-1.6893,-1.6874,-1.6875,-1.6875,0,-1.7062,-1.706,-1.7039,-1.7033,-1.7024,-1.7016,-1.7008,-1.699,-1.6983,-1.6965,-1.6963,-1.695,-1.6939,-1.6921,-1.6905,-1.6892,-1.6885,-1.6891,-1.6883,-1.6887,-1.6884,-1.6884,-1.6883,-1.6893,-1.6893,-1.6893,-1.6893,0,-1.7082,-1.7074,-1.7065,-1.7051,-1.7043,-1.7032,-1.702,-1.7016,-1.6995,-1.6988,-1.6976,-1.6967,-1.6949,-1.6937,-1.6921,-1.691,-1.6898,-1.6896,-1.6895,-1.69,-1.6906,-1.6901,-1.6883,-1.6896,-1.6896,-1.6895,-1.6895,-1.6895,-1.7099,-1.7095,-1.708,-1.7069,-1.7058,-1.7046,-1.7041,-1.7027,-1.7017,-1.7001,-1.6991,-1.6979,-1.6963,-1.694,-1.693,-1.692,-1.6915,-1.6915,-1.6914,-1.6914,-1.6916,-1.6907,-1.6917,-1.6917,-1.6917,-1.6917,-1.6917,0,-1.7117,-1.7106,-1.7096,-1.708,-1.7071,-1.706,-1.7046,-1.7039,-1.7029,-1.7015,-1.7004,-1.6989,-1.6976,-1.6958,-1.6943,-1.6938,-1.6932,-1.6935,-1.6935,-1.6932,-1.6922,-1.6923,-1.694,-1.694,-1.694,-1.694,-1.694,-1.694,-1.7126,-1.7118,-1.7108,-1.7094,-1.7083,-1.7071,-1.7064,-1.7053,-1.7041,-1.7026,-1.7015,-1.7003,-1.6987,-1.6971,-1.6958,-1.6953,-1.6948,-1.6952,-1.6945,-1.6935,-1.6933,-1.6931,-1.6932,-1.6951,-1.6951,-1.6957,-1.6957,-1.6957]}]]